Weather History for LPMT - April, 2013

Change the Weather History Date:

Tuesday, April 30, 2013

  Actual Average Record
Temperature  
Mean Temperature 54 °F -  
Max Temperature 63 °F - - ()
Min Temperature 46 °F - - ()
Degree Days  
Heating Degree Days 10    
Growing Degree Days 4 (Base 50)    
Moisture  
Dew Point 44 °F    
Average Humidity 66    
Maximum Humidity 87    
Minimum Humidity 39    
Precipitation  
Precipitation 0.00 in - - ()
Sea Level Pressure  
Sea Level Pressure 29.91 in    
Wind  
Wind Speed 7 mph ()    
Max Wind Speed 11 mph    
Max Gust Speed -    
Visibility 12.0 miles    
Events      
T = Trace of Precipitation, MM = Missing Value Source: Averaged Metar Reports

Daily Weather History Graph

Daily Weather History Graph

Search for Another Location

Airport or City:

Trip Planner

Search our weather history database for the weather conditions in past years. The results will help you decide how hot, cold, wet, or windy it might be!

Date:

Astronomy

Apr. 30, 2013 Rise Set
Actual Time 6:39 AM WEST 8:27 PM WEST
Civil Twilight 6:11 AM WEST 8:56 PM WEST
Nautical Twilight 5:36 AM WEST 9:30 PM WEST
Astronomical Twilight 4:59 AM WEST 10:08 PM WEST
Moon 12:38 AM WEST (4/30) 10:54 AM WEST (4/30)
Length of Visible Light 14h 44m
Length of Day
13h 47m
Waning Gibbous, 72% of the Moon is Illuminated
Apr 30
Waning Gibbous
May 2
Last Quarter
May 10
New
May 18
First Quarter
May 25
Full

Hourly Weather History & Observations

Time (WEST) Temp. Dew Point Humidity Pressure Visibility Wind Dir Wind Speed Gust Speed Precip Events Conditions
12:00 AM 51.8 °F 42.8 °F 71% 29.86 in - North - - N/A   Partly Cloudy
1:00 AM 50 °F 43 °F 71% 29.88 in 12 mi NNE 11.2 mph - -  
1:00 AM 50.0 °F 42.8 °F 76% 29.86 in - North - - N/A   Clear
2:00 AM 48.2 °F 42.8 °F 82% 29.89 in - North - - N/A   Clear
3:00 AM 48.2 °F 42.8 °F 82% 29.86 in - North - - N/A   Clear
4:00 AM 46.4 °F 42.8 °F 87% 29.86 in - North - - N/A   Clear
5:00 AM 46.4 °F 42.8 °F 87% 29.86 in - North - - N/A   Clear
6:00 AM 48.2 °F 42.8 °F 82% 29.89 in - North - - N/A   Partly Cloudy
7:00 AM 49 °F 43 °F 73% 29.89 in 12 mi North 6.7 mph - -   Scattered Clouds
7:00 AM 48.2 °F 42.8 °F 82% 29.89 in - North - - N/A   Partly Cloudy
8:00 AM 50.0 °F 42.8 °F 76% 29.89 in - North - - N/A   Partly Cloudy
9:00 AM 53.6 °F 42.8 °F 67% 29.92 in - North - - N/A   Partly Cloudy
10:00 AM 57.2 °F 44.6 °F 63% 29.92 in - North - - N/A   Partly Cloudy
11:00 AM 59.0 °F 44.6 °F 59% 29.92 in - North - - N/A   Partly Cloudy
12:00 PM 60.8 °F 42.8 °F 52% 29.95 in - North - - N/A   Scattered Clouds
1:00 PM 62 °F 44 °F 39% 29.95 in 12 mi NNE 8.9 mph - -   Partly Cloudy
1:00 PM 60.8 °F 42.8 °F 52% 29.95 in - North - - N/A   Scattered Clouds
2:00 PM 62.6 °F 44.6 °F 52% 29.92 in - North - - N/A   Scattered Clouds
3:00 PM 62.6 °F 44.6 °F 52% 29.92 in - North - - N/A   Scattered Clouds
4:00 PM 62.6 °F 42.8 °F 48% 29.92 in - North - - N/A   Scattered Clouds
5:00 PM 62.6 °F 46.4 °F 55% 29.92 in - North - - N/A   Scattered Clouds
6:00 PM 62.6 °F 46.4 °F 55% 29.92 in - North - - N/A   Scattered Clouds
7:00 PM 62 °F 46 °F 44% 29.94 in 12 mi North 11.2 mph - -   Scattered Clouds
8:00 PM 60.8 °F 44.6 °F 55% 29.95 in - North - - N/A   Partly Cloudy
9:00 PM 55.4 °F 46.4 °F 72% 29.95 in - North - - N/A   Partly Cloudy
10:00 PM 55.4 °F 46.4 °F 72% 29.98 in - North - - N/A   Partly Cloudy
11:00 PM 53.6 °F 46.4 °F 77% 29.98 in - North - - N/A   Clear